Weather in Chentsy

Russia / Kostroma Oblast     57°40′19″N   41°19′01″E
temp.,
°C
wind,
m/s
gust,
m/s
humid.,
%
clouds,
%
prec.,
mm/h
press.,
hPa
HPBL,
m
13 april, tue
tue1300:00+6se51395100 0.0 1032473
03:00+6se41197100 0.0 1031384
06:00+5se41197100 0.0 1030273
09:00+10sse41085100 0.0 1029316
12:00+15s5964100 0.0 1027600
15:00+17s5952100 0.0 10261197
18:00+14sse3964100 0.0 1025184
21:00+10sse3117679 0.0 1025191
14 april, wed
wed1400:00+8sse31074100 0.0 1025171
03:00+8sse311765 0.0 1025187
06:00+7sse3108020 0.0 1024174
09:00+12sse4106281 0.0 1024364
12:00+16s584772 0.0 1022869
15:00+18s4739100 0.0 10211593
18:00+15sse3757100 0.0 1020144
21:00+11sse3867100 0.0 1020128
15 april, thu
thu1500:00+9s2469100 0.0 102062
03:00+8s2273100 0.0 102011
06:00+7sw1174100 0.0 102010
09:00+12sse1157100 0.0 1020185
12:00+16sse0147100 0.0 1019590
15:00+16n2246100 0.0 10191114
18:00+13nne4770100 0.0 1019422
21:00+8nne5984100 0.0 1021407
16 april, fri
fri1600:00+6ne4108792 0.0 1021386
03:00+5ne498897 0.0 1022490
06:00+5ne4988100 0.0 1023512
09:00+5ne4883100 0.0 1024555
12:00+9ne465717 0.0 10251051
15:00+11ne563781 0.0 10251511
18:00+9ne484459 0.0 1026860
21:00+5nne3116418 0.0 1028287
17 april, sat
sat1700:00+3nne310722 0.0 1029237
03:00+1nne39755 0.0 1031189
06:00+1nne411795 0.0 1032431
09:00+4ne58525 0.0 1034902
12:00+7ne58350 0.0 10341449
15:00+8ne57314 0.0 10341684
18:00+7ne473736 0.0 10351141
21:00+3ne245590 0.0 103785